Theta_e
321 322 321 320 319 318 317 317 316 316 316 316 316 315 316 316 317 319 320 320 321 321 321 322 323 323 324 325 325 325 326 326 326 327 327 326 325 324 324 323 323 323
320 321 321 321 319 317 317 317 317 317 316 316 316 315 316 317 318 319 320 321 322 322 322 323 324 324 324 324 325 325 326 327 327 327 327 327 326 325 324 323 323 323
319 319 319 319 318 317 317 318 319 318 317 317 317 316 317 318 318 320 321 321 322 323 323 324 324 324 324 324 325 325 326 326 327 327 327 326 326 326 325 324 324 323
319 319 319 318 318 318 319 321 321 319 319 319 318 318 318 319 319 320 321 322 323 323 324 325 325 325 324 324 324 324 324 325 326 326 326 326 326 325 325 324 324 324
319 319 319 319 318 319 320 322 321 320 320 320 319 320 320 320 320 321 321 322 323 324 324 325 325 325 325 324 324 324 324 325 325 326 326 326 326 325 324 324 325 324
318 318 318 318 319 319 321 321 320 321 321 321 321 322 321 322 322 322 322 323 324 325 325 326 326 326 325 325 324 324 324 325 325 325 326 326 326 326 325 325 326 324
316 317 317 318 319 319 320 319 319 320 320 322 323 323 323 324 324 324 325 325 325 326 326 326 326 326 325 325 325 324 324 324 324 325 326 326 326 326 327 327 326 323
315 316 317 318 318 318 318 318 318 319 320 323 324 324 324 325 325 326 326 327 327 327 327 327 327 326 326 325 325 325 324 323 324 325 326 327 327 328 328 327 325 322
314 315 315 316 316 316 316 317 319 321 323 325 325 325 326 326 326 327 327 327 327 327 327 327 327 326 326 326 326 325 325 324 325 325 325 326 327 328 328 326 325 323
313 313 313 313 314 314 314 316 318 320 322 324 324 325 326 326 326 326 326 325 326 326 326 326 326 326 326 326 326 326 325 325 326 327 327 327 327 328 328 327 324 322
312 312 312 312 311 311 311 312 314 316 318 319 321 322 323 323 324 324 324 324 324 325 325 325 326 326 326 326 327 326 326 324 324 324 325 326 327 327 328 327 324 321
312 311 311 311 310 310 310 310 311 312 314 316 317 319 320 321 322 323 323 324 324 324 325 325 325 326 326 327 327 326 325 324 322 321 321 322 323 325 327 326 324 322
312 311 311 311 310 310 309 309 310 311 312 314 316 318 320 321 322 322 323 323 323 323 324 325 325 325 325 325 325 324 323 322 321 321 322 322 322 324 325 325 323 323
311 312 311 311 311 310 310 310 310 310 311 312 314 315 317 318 319 320 321 322 323 323 323 324 324 324 325 325 325 325 323 321 320 321 322 323 324 325 324 323 323 323
312 312 312 312 312 311 311 311 311 311 311 311 311 311 312 314 316 317 319 320 321 322 324 323 321 322 325 325 325 325 323 320 320 321 322 323 324 324 323 323 322 322
311 311 311 311 311 311 311 311 311 311 311 311 311 310 310 313 315 316 319 322 322 321 322 321 321 324 325 323 321 321 321 321 321 322 322 324 324 323 323 324 323 322
311 311 311 311 311 311 311 311 311 311 311 311 311 311 310 312 313 315 318 323 325 323 323 323 323 324 325 321 318 318 320 323 324 324 324 324 323 322 322 323 322 321
310 311 310 311 311 311 311 311 311 311 311 311 311 311 311 311 311 311 312 316 319 321 321 322 323 324 325 323 320 319 321 323 324 324 324 323 322 322 323 323 322 321
310 310 310 311 311 311 311 311 311 311 311 311 311 311 310 310 310 310 311 313 315 316 317 319 320 322 323 322 320 321 323 324 323 322 322 321 321 322 322 322 321 320
310 310 310 310 310 311 311 311 312 311 311 311 311 310 310 309 309 311 312 314 315 315 316 318 319 320 321 321 321 322 322 322 321 321 320 320 320 320 320 320 320 320
310 310 310 310 310 310 311 311 312 312 312 311 311 310 310 309 309 310 311 313 315 316 317 318 319 320 321 321 321 321 321 321 320 319 319 319 319 318 318 319 319 319
310 310 310 310 310 310 311 311 312 312 312 311 311 310 310 309 309 309 311 313 315 316 317 317 318 320 321 321 321 321 320 320 319 319 319 319 318 318 318 318 318 318
311 310 310 310 310 310 311 311 312 312 312 311 311 310 310 309 308 309 311 312 314 315 317 317 317 319 320 321 321 321 320 320 320 320 319 319 318 318 318 317 317 317
312 311 310 310 310 310 311 311 312 312 311 311 311 310 309 309 308 308 310 312 313 314 316 318 318 319 320 320 320 320 320 320 320 319 319 319 318 318 317 316 316 316
311 311 311 311 310 310 310 311 311 312 311 311 310 309 309 309 309 309 308 310 312 313 314 316 318 318 319 319 319 319 319 319 319 319 318 318 317 317 316 316 316 316
311 311 310 310 310 310 311 311 311 311 311 311 310 309 309 308 309 309 309 308 309 311 312 313 314 315 316 317 317 317 317 317 317 317 316 316 316 316 316 316 315 315
Wind_Speed
45 45 44 44 43 42 42 42 42 42 42 42 43 42 41 40 41 42 43 42 42 42 42 42 41 41 41 41 41 40 40 39 39 38 38 39 38 35 34 34 34 34
45 45 44 44 43 42 42 42 43 43 42 42 42 42 42 42 42 42 43 43 43 42 42 42 42 41 41 41 41 41 41 41 40 40 40 40 39 37 35 35 35 34
43 44 44 44 43 42 42 43 44 43 42 42 43 43 43 43 43 43 43 43 43 43 42 42 42 41 41 41 42 42 42 42 42 41 41 41 40 38 36 35 35 35
42 42 43 43 42 43 44 45 45 44 43 43 42 43 43 44 44 44 43 43 43 43 43 42 42 41 40 40 41 42 42 43 43 42 43 42 41 39 37 36 36 37
39 40 41 41 41 42 44 45 45 44 44 43 42 42 43 43 43 43 43 43 43 43 43 42 42 41 40 40 41 42 43 43 43 43 43 43 43 40 38 38 39 37
36 37 38 39 40 41 43 44 43 43 43 43 42 42 41 42 42 42 42 43 43 43 43 43 42 42 41 40 41 42 42 42 42 43 43 44 44 41 40 41 40 35
34 35 36 37 39 40 41 41 41 42 42 42 42 41 41 41 41 41 41 42 42 42 42 42 42 41 41 40 41 42 41 41 42 42 43 44 43 43 44 43 37 34
34 35 35 37 38 39 40 40 40 41 41 42 42 41 41 41 41 41 40 40 41 42 41 41 41 40 39 39 40 40 39 38 39 40 43 44 46 47 45 39 36 38
35 35 36 37 38 39 39 40 40 40 41 41 41 41 40 40 40 40 39 40 40 41 41 40 40 38 37 37 37 37 36 37 38 39 40 41 45 47 42 37 38 37
35 35 36 37 38 39 39 39 39 39 39 40 39 39 39 39 38 38 38 39 39 39 39 38 38 37 36 35 35 35 35 36 39 41 42 41 43 44 42 40 37 32
34 34 35 35 36 37 37 37 37 37 37 37 37 37 37 37 36 36 36 37 37 37 36 35 36 36 35 35 35 35 34 34 37 38 40 43 43 44 46 43 33 28
30 29 29 30 30 31 32 33 34 34 34 34 35 35 34 34 34 33 34 33 33 33 33 33 33 33 34 35 34 33 32 33 35 34 35 37 38 44 49 41 30 27
25 25 25 26 26 28 29 30 31 31 32 32 32 32 32 31 31 30 30 30 30 30 30 31 31 31 31 31 31 31 30 31 31 32 35 35 37 47 49 37 30 31
22 23 23 24 24 25 26 27 27 28 29 29 29 30 30 29 29 28 28 28 28 28 28 28 30 31 31 31 31 29 27 28 29 30 35 38 43 50 46 32 32 36
19 20 20 20 21 21 22 23 24 24 25 27 27 28 28 28 28 27 26 26 26 27 28 27 28 30 31 34 35 31 27 28 28 30 34 40 46 50 43 31 32 35
16 17 17 17 18 19 19 20 21 22 23 25 25 27 27 27 27 26 24 25 26 26 26 27 27 29 29 29 30 30 30 28 27 29 33 39 46 48 42 34 31 30
14 14 15 16 16 17 18 18 19 21 22 23 25 26 28 28 29 29 27 27 28 27 27 29 29 29 28 25 24 26 28 28 29 32 34 38 43 42 39 35 30 27
13 13 14 15 15 16 17 17 18 20 21 22 24 25 27 28 30 30 29 29 31 31 30 29 27 28 30 28 24 25 26 28 32 34 36 38 38 37 37 36 29 27
13 14 14 15 16 16 17 17 18 19 19 21 22 23 24 25 25 25 25 26 27 28 28 27 25 27 29 28 25 25 27 30 32 33 34 35 34 35 39 36 29 26
15 15 16 16 16 16 16 17 17 18 18 20 21 21 21 21 22 22 22 23 23 23 24 24 24 24 25 26 27 28 29 31 32 31 31 31 32 36 38 34 28 25
18 18 18 17 17 16 16 16 16 17 17 18 19 19 19 19 19 20 20 20 20 21 21 22 22 23 23 24 26 27 27 28 28 28 27 28 31 34 33 30 27 27
19 20 19 18 17 17 16 16 16 16 17 17 18 19 19 19 19 19 20 20 20 21 21 21 21 22 22 22 24 24 23 22 21 21 22 25 27 29 29 29 28 27
20 21 20 20 19 18 17 16 16 17 17 18 19 19 19 20 20 20 20 20 20 21 20 20 21 22 21 20 21 21 21 19 18 17 19 22 24 26 29 29 27 26
22 22 22 22 21 19 18 17 17 18 18 18 18 18 18 18 18 19 20 20 20 20 21 20 19 19 19 17 15 15 16 17 18 18 19 21 23 25 27 27 26 25
24 24 25 24 22 20 19 18 18 18 18 18 17 16 16 16 15 16 19 20 21 21 22 22 21 20 19 18 17 15 15 17 18 19 20 20 22 24 25 24 23 23
25 25 25 25 23 21 19 19 19 18 18 17 16 15 14 13 13 13 14 16 18 19 20 20 21 21 21 20 20 19 19 19 20 20 19 19 19 21 21 21 22 22
Wind_Direction
254 254 254 255 255 255 256 256 257 257 258 259 259 260 261 261 261 260 261 262 262 263 264 263 263 263 263 262 260 258 256 255 254 252 252 251 251 251 249 247 247 246
254 254 255 255 255 256 256 256 257 258 260 261 262 263 263 263 262 262 262 262 262 263 263 263 263 263 263 262 261 259 257 255 254 252 251 251 250 251 250 248 247 247
255 255 255 255 256 257 257 257 258 259 260 262 262 263 264 264 264 263 263 263 263 263 263 263 263 263 263 263 263 261 258 256 254 253 252 251 250 250 250 250 250 248
255 255 256 257 259 260 260 259 259 260 261 261 262 264 264 264 265 265 265 265 264 264 264 263 263 263 263 264 264 262 260 258 256 255 253 252 250 250 251 252 251 249
258 258 258 259 261 262 261 261 261 262 262 262 263 263 264 265 265 265 265 265 265 265 265 264 264 263 263 264 263 262 260 257 256 255 254 253 251 251 253 252 248 247
258 257 257 259 260 261 262 262 263 264 263 264 264 264 265 266 266 266 266 266 266 265 265 264 264 263 263 262 262 261 259 257 256 255 253 254 252 253 255 249 243 249
254 254 255 257 258 260 261 263 264 264 265 266 265 265 266 266 267 267 267 267 267 266 266 265 264 263 263 262 261 260 258 256 256 255 255 255 253 254 252 244 244 260
249 251 253 254 256 258 259 261 262 263 265 265 265 266 267 267 268 269 269 269 268 268 268 267 265 264 263 263 262 261 260 258 256 255 255 254 252 250 245 242 254 266
247 249 250 252 253 254 256 258 260 262 264 265 266 267 268 268 269 270 270 270 270 270 269 268 267 266 264 265 264 263 262 260 259 258 256 254 252 247 242 248 260 262
249 249 250 251 252 253 255 257 259 260 262 263 265 266 267 267 268 268 268 268 268 269 268 268 268 266 265 266 266 265 262 259 258 256 255 256 254 249 248 254 257 258
250 252 253 254 256 257 258 259 260 260 260 261 262 263 263 264 264 264 265 265 265 266 267 268 268 266 266 267 266 262 260 261 260 256 254 254 254 253 253 253 254 262
248 250 253 255 256 257 258 258 258 257 257 257 258 259 259 260 260 261 262 263 264 266 267 267 266 264 265 265 263 260 261 265 265 261 258 254 253 254 252 248 252 262
244 246 247 248 249 250 251 252 253 254 254 255 255 256 256 257 258 260 261 262 263 264 265 266 265 264 264 263 262 262 266 269 264 262 260 256 256 254 248 247 254 255
239 241 242 242 244 246 248 250 251 252 254 254 255 255 255 255 255 256 257 259 261 262 264 265 263 261 260 259 256 255 264 270 263 258 257 256 258 252 243 248 260 255
234 236 238 240 242 244 246 248 250 252 253 254 255 255 255 254 252 253 255 255 257 259 260 260 262 260 257 254 251 251 264 271 262 255 256 257 257 250 240 249 264 258
233 236 238 240 242 244 246 248 249 250 251 253 255 256 255 253 251 250 252 254 257 258 254 253 257 258 257 258 259 257 261 265 259 257 259 259 256 249 242 252 266 262
234 236 237 239 241 242 244 247 248 249 250 251 253 254 254 253 251 247 243 243 247 252 252 252 253 249 250 261 267 257 252 257 262 264 265 262 258 251 247 256 265 257
234 235 236 238 239 240 243 245 246 248 249 249 250 251 251 250 249 248 243 239 242 245 246 249 250 246 248 257 261 255 255 263 268 268 268 266 262 255 252 255 258 249
234 235 236 237 238 239 240 241 244 246 247 248 248 248 248 247 245 245 242 240 241 243 244 245 246 246 248 253 255 257 265 272 272 269 268 266 263 256 252 253 252 249
236 236 237 238 238 239 239 239 242 244 246 247 248 247 246 245 242 239 237 237 239 241 241 242 244 245 247 249 253 259 267 272 273 271 267 264 260 255 253 253 252 252
238 236 237 238 238 240 242 242 242 243 245 247 248 247 245 242 237 233 231 231 233 236 237 237 239 245 250 253 257 262 266 269 271 270 267 264 260 256 256 255 251 254
239 237 237 238 239 240 240 241 242 243 245 247 247 246 245 241 236 232 229 228 229 231 235 235 236 243 249 252 254 260 265 267 268 266 264 264 262 259 257 253 248 253
239 237 237 238 239 240 239 239 239 240 242 243 243 243 242 239 235 231 228 229 229 228 231 234 235 240 247 250 252 257 262 262 262 261 261 263 261 256 253 250 247 253
237 236 237 238 239 240 239 238 237 237 238 238 238 238 238 238 236 230 226 226 227 225 227 230 232 234 240 245 250 257 258 253 254 259 262 262 258 253 251 251 252 257
231 232 234 236 238 238 238 238 237 236 235 234 233 233 234 233 231 228 225 224 224 224 225 227 229 230 234 238 242 246 247 243 246 252 255 255 254 251 251 252 256 262
232 231 233 235 236 237 237 237 237 235 235 234 233 234 233 228 223 222 224 224 223 225 227 228 231 233 235 238 240 241 240 238 239 244 247 248 248 247 249 255 262 266